This is the latest recevied weather packets stored in our database for station/object KC4GS-13. If no packets are shown the sender has not sent any weather packets the latest 10 day(s).
| Time | Temp. | Humidity | Pressure | Rain* | Wind** | Luminosity | Snow |
|---|---|---|---|---|---|---|---|
| 1777334000 | 21.11° C | 54% | 1021.3 hPa | 0 mm | - | 8 W/m² | - |
| 1777333692 | 21.11° C | 54% | 1021.6 hPa | 0 mm | - | 10 W/m² | - |
| 1777333388 | 21.11° C | 53% | 1021.3 hPa | 0 mm | - | 12 W/m² | - |
| 1777333086 | 21.67° C | 52% | 1021.1 hPa | 0 mm | - | 15 W/m² | - |
| 1777332784 | 21.67° C | 53% | 1021 hPa | 0 mm | - | 16 W/m² | - |
| 1777332480 | 21.67° C | 53% | 1021 hPa | 0 mm | - | 19 W/m² | - |
| 1777332177 | 22.22° C | 52% | 1021.2 hPa | 0 mm | - | 22 W/m² | - |
| 1777331874 | 22.22° C | 51% | 1021.2 hPa | 0 mm | - | 24 W/m² | - |
| 1777331571 | 22.22° C | 50% | 1020.9 hPa | 0 mm | - | 26 W/m² | - |
| 1777331269 | 22.78° C | 50% | 1021.2 hPa | 0 mm | - | 27 W/m² | - |
| 1777330966 | 22.78° C | 50% | 1021.1 hPa | 0 mm | - | 28 W/m² | - |
| 1777330662 | 22.78° C | 49% | 1021 hPa | 0 mm | - | 29 W/m² | - |
| 1777330360 | 22.78° C | 48% | 1020.8 hPa | 0 mm | - | 31 W/m² | - |
| 1777330057 | 22.78° C | 48% | 1020.9 hPa | 0 mm | - | 33 W/m² | - |
| 1777329757 | 23.33° C | 47% | 1020.8 hPa | 0 mm | - | 35 W/m² | - |
| 1777329455 | 23.33° C | 47% | 1020.9 hPa | 0 mm | - | 36 W/m² | - |
| 1777329152 | 23.89° C | 47% | 1020.8 hPa | 0 mm | - | 38 W/m² | - |
| 1777328849 | 23.89° C | 46% | 1021 hPa | 0 mm | - | 78 W/m² | - |
| 1777328547 | 24.44° C | 44% | 1020.9 hPa | 0 mm | - | 62 W/m² | - |
| 1777328245 | 25° C | 42% | 1020.9 hPa | 0 mm | - | 56 W/m² | - |
| 1777327943 | 25° C | 42% | 1020.9 hPa | 0 mm | - | 265 W/m² | - |
| 1777327641 | 25° C | 42% | 1021 hPa | 0 mm | - | 256 W/m² | - |
| 1777327338 | 25.56° C | 41% | 1020.9 hPa | 0 mm | - | 299 W/m² | - |
| 1777327035 | 25.56° C | 41% | 1020.8 hPa | 0 mm | - | 312 W/m² | - |
| 1777326732 | 25.56° C | 41% | 1020.9 hPa | 0 mm | - | 337 W/m² | - |
* Rain latest hour (hover to see other rain measurements)
** Current wind speed in m/s (hover to see current wind gust speed)